Regional Weather Roundup
Issued by NWS

Home | Current Version | Previous Version | Graphics & Text | Print | Product List | Glossary On
Versions: 1 2 3 4 5 6 7 8 9 10 11 12 13 14 15 16 17 18 19 20 21 22 23 24 25 26 27 28 29 30 31 32 33 34 35 36 37 38 39 40 41 42 43 44 45 46 47 48 49 50
000
ASUS43 KIND 281259
RWRIN

WEATHER ROUNDUP FOR INDIANA
NATIONAL WEATHER SERVICE INDIANAPOLIS IN
900 AM EDT TUE APR 28 2015

NOTE: "FAIR" INDICATES FEW OR NO CLOUDS BELOW 12,000 FEET WITH NO
SIGNIFICANT WEATHER AND/OR OBSTRUCTIONS TO VISIBILITY.

* - STATION DOES NOT REPORT WEATHER SUCH AS PRECIPITATION OR FOG.

+ - STATION NOT QUALITY CONTROLLED BY THE NATIONAL WEATHER SERVICE.
    USE DATA WITH CAUTION...ESPECIALLY DEWPOINT AND RELATIVE
    HUMIDITY OBSERVATIONS.

INZ001>003-010>013-019-020-281400-
NORTHWEST INDIANA

CITY           SKY/WX    TMP DP  RH WIND       PRES   REMARKS
GARY /AIRPORT/ MOSUNNY   45  36  70 CALM      30.17
KNOX *+        SUNNY     39  36  87 CALM      30.17S

$$

LMZ046-743>745-281400-
SOUTHERN LAKE MICHIGAN

STATION/POSITION TIME  TEMP    WIND        PRES    WAVE
                       AIR SEA DIR/SP/G            HT
                 (UTC) (F)     (DEG/KT/KT) (MB)    (FT)
BURNS HARBOR     1200   43      CALM  /  4 1022.0S
MICHIGAN CITY    1200   40     160/  3/  4   N/A
5NW MICH CITY    1200   41 46  260/  4/  4   N/A     1

$$

INZ004-005-014>016-021>024-281400-
NORTH CENTRAL INDIANA

CITY           SKY/WX    TMP DP  RH WIND       PRES   REMARKS
ELKHART        SUNNY     41  37  87 CALM      30.17R
GOSHEN         SUNNY     43  38  82 CALM      30.16S
SOUTH BEND     SUNNY     45  37  73 CALM      30.17S
WARSAW +       SUNNY     43  37  81 CALM      30.17R

$$

INZ006>009-017-018-025>027-281400-
NORTHEAST INDIANA

CITY           SKY/WX    TMP DP  RH WIND       PRES   REMARKS
ANGOLA *+      SUNNY     45  34  65 CALM      30.16R
FORT WAYNE     SUNNY     47  39  74 CALM      30.18R

$$

INZ028-029-035-036-043>045-051>053-281400-
WEST CENTRAL INDIANA

CITY           SKY/WX    TMP DP  RH WIND       PRES   REMARKS
CRAWFORDSVL +  SUNNY     42  34  73 NE5       30.16S
GREENCASTLE +  SUNNY     45  34  65 NE6       30.15S
LAFAYETTE      SUNNY     44  37  76 N3        30.16S
TERRE HAUTE    SUNNY     47  39  74 NE6       30.15S

$$

INZ030>032-037>040-046>048-054>057-064-065-281400-
CENTRAL INDIANA

CITY           SKY/WX    TMP DP  RH WIND       PRES   REMARKS
ANDERSON       SUNNY     45  36  70 N6        30.16
COLUMBUS       SUNNY     45  37  76 N6        30.14
FRANKFORT +    SUNNY     45  42  92 N3        30.17S
GREENWOOD *+   SUNNY     46  34  61 NE5       30.15S
INDIANAPOLIS   SUNNY     48  36  63 NE5       30.14S
-EAGLE CREEK   SUNNY     48  37  65 CALM      30.15R
KOKOMO *+      SUNNY     46  37  71 N3        30.16S
MT COMFORT *+  SUNNY     46  32  57 N3        30.15F
SHELBYVILLE    SUNNY     49  38  65 N5        30.14R

$$

INZ033-034-041-042-049-050-058-059-281400-
EAST CENTRAL INDIANA

CITY           SKY/WX    TMP DP  RH WIND       PRES   REMARKS
MUNCIE         SUNNY     45  38  76 CALM      30.16R

$$

INZ060-061-067>069-081>083-085>088-281400-
SOUTHWEST INDIANA

CITY           SKY/WX    TMP DP  RH WIND       PRES   REMARKS
EVANSVILLE     SUNNY     49  40  71 NE10      30.12R
HUNTINGBURG *+ SUNNY     46  39  76 NE7       30.12S

$$

INZ062-063-066-070>080-084-089>092-281400-
SOUTH CENTRAL AND SOUTHEAST INDIANA

CITY           SKY/WX    TMP DP  RH WIND       PRES   REMARKS
BLOOMINGTON    SUNNY     47  38  71 E6        30.13R
MADISON *+     SUNNY     46  36  66 NE8       30.13R
SEYMOUR +      SUNNY     48  39  71 NE8       30.13R

$$




USA.gov is the U.S. government's official web portal to all federal, state and local government web resources and services.